Vorticity
7 7 8 8 8 8 8 7 7 7 7 8 8 7 6 6 5 5 5 5 4 4 4 6 8 9 9 7 4 2 1 1 2 4 8 10 10 8 6 6 6 7 7 5 5 7 8 7 7 7 6 5 3 -2 -4 0 3 7 12 11 6 4 5 4 1 1 3 5 7 8 8 9 9 8 7 6 4 3 5 7 6 6 8 10 14
6 5 6 6 6 7 7 6 6 5 5 4 3 3 3 3 4 4 6 6 6 5 4 4 4 5 6 7 6 3 1 -0 0 -0 1 5 9 11 9 8 7 7 8 7 5 5 7 9 8 7 8 9 8 4 -1 -1 -2 -2 3 11 12 7 5 6 5 1 2 3 4 8 9 7 7 6 3 2 3 4 7 9 11 11 10 9 11
4 3 4 5 5 6 6 5 5 4 3 2 2 3 5 6 7 9 10 12 13 12 11 10 10 9 9 10 8 6 4 2 1 -0 -1 -1 3 7 9 9 9 8 8 8 8 6 5 7 9 9 9 10 11 9 5 3 3 1 -1 3 10 12 8 5 6 3 2 4 3 3 4 5 5 3 4 7 8 10 9 9 11 10 8 8 9
5 4 4 4 5 5 4 3 3 2 3 4 5 6 9 11 14 18 20 21 22 22 21 20 21 22 23 24 23 20 18 15 12 9 6 3 3 5 6 7 8 8 10 9 9 9 7 6 8 11 10 8 7 9 8 5 5 6 3 1 4 8 7 1 2 7 6 3 3 4 3 4 5 3 8 13 11 9 8 7 8 7 5 6 8
5 4 5 5 4 2 3 4 6 7 8 9 11 14 17 20 21 22 24 24 24 24 25 25 25 27 29 33 34 34 34 32 31 29 25 20 16 12 10 9 8 5 6 10 10 10 9 7 6 9 12 10 6 4 6 5 4 5 4 4 4 7 11 6 1 4 8 6 3 5 6 3 4 8 11 12 9 8 8 6 5 4 3 3 5
5 6 6 5 4 6 10 12 12 11 11 12 15 19 22 23 23 23 24 25 27 27 27 27 27 30 34 36 38 40 41 41 42 43 43 40 36 31 24 18 14 9 4 3 8 10 11 10 8 6 8 12 10 3 2 5 4 2 5 6 3 2 7 10 9 4 4 9 6 4 6 7 6 6 4 3 4 4 3 2 3 4 3 3 2
5 6 7 9 12 16 16 12 11 11 13 16 19 21 22 23 24 26 27 27 27 27 28 31 35 36 37 38 41 42 42 41 41 42 44 46 46 45 40 31 24 21 14 4 2 6 10 12 11 8 5 8 11 4 -1 3 7 7 4 2 3 3 0 3 8 6 2 5 8 7 6 6 7 5 3 4 5 5 4 3 3 2 2 3 2
8 10 11 13 13 14 10 7 10 13 16 19 21 22 23 25 26 26 26 26 28 31 35 41 41 37 35 37 38 36 37 38 37 37 38 40 42 43 45 41 33 30 30 21 9 3 6 10 13 13 7 5 10 11 4 -0 5 14 13 4 1 4 2 1 2 5 6 4 3 5 5 6 8 8 8 8 6 5 6 4 3 3 2 3 3
9 9 8 9 10 10 9 10 13 16 19 22 24 26 27 27 28 30 34 39 41 41 42 42 35 30 34 37 32 26 27 30 30 31 32 33 35 37 40 42 38 33 35 36 28 15 6 4 9 15 13 6 5 10 13 4 -6 -0 14 19 15 10 4 -1 -5 -3 3 6 4 2 3 6 9 8 7 7 8 7 5 5 5 5 5 3 3
5 6 8 12 15 15 14 15 17 21 26 29 31 34 35 35 37 42 47 46 41 37 36 33 26 23 27 27 22 19 20 20 21 22 23 25 28 31 35 40 41 35 33 37 40 35 24 10 4 9 16 15 8 5 12 14 0 -14 -11 4 15 21 21 16 6 -2 -5 -3 -0 1 2 5 7 6 4 4 8 11 11 9 7 6 6 5 4
14 15 15 17 19 20 20 22 27 33 33 32 35 38 38 38 41 44 41 33 29 29 27 23 17 15 16 14 14 16 16 16 16 16 17 18 21 23 26 32 39 39 34 33 37 42 42 33 17 7 9 16 17 11 8 13 14 1 -13 -17 -12 -1 12 21 22 15 7 1 -4 -5 -0 6 10 8 6 5 5 6 9 10 8 8 8 6 5
18 14 13 17 21 25 29 32 35 35 32 34 39 37 35 37 37 34 29 24 23 21 16 12 11 12 14 13 13 14 16 17 16 15 13 13 15 16 18 21 27 34 36 33 33 36 41 45 39 24 12 11 15 17 13 10 14 16 6 -6 -14 -14 -8 4 15 17 13 11 7 1 -3 0 7 9 5 7 7 2 2 3 3 4 5 5 6
11 12 17 22 26 32 34 35 34 32 34 39 38 31 29 32 32 28 24 21 18 13 11 12 14 15 15 13 12 13 14 17 18 15 11 11 11 12 13 16 18 23 29 31 31 31 33 38 44 43 32 20 14 14 15 12 10 14 16 11 2 -7 -11 -9 3 14 14 14 17 15 8 -2 -4 1 3 3 6 5 2 2 1 2 1 2 6
13 19 24 28 33 35 32 30 30 31 35 35 27 23 23 26 28 25 21 16 11 9 11 12 12 13 12 11 12 13 11 13 17 18 14 11 10 9 9 11 14 16 21 26 28 30 32 32 35 44 46 39 29 19 14 13 10 8 12 16 15 8 -2 -11 -8 6 15 17 17 14 14 9 -1 0 4 4 5 5 3 3 3 3 1 -1 1
21 24 27 32 35 33 30 29 28 28 31 27 20 18 19 22 24 20 13 9 8 9 10 10 11 10 8 9 11 11 10 11 15 19 19 15 11 10 8 8 10 10 12 16 20 24 30 32 30 33 41 45 43 34 23 16 13 11 8 9 13 14 10 -1 -10 -7 2 14 20 14 6 5 4 4 6 6 7 6 4 3 0 -2 -1 -0 0
23 22 29 35 34 32 30 27 24 25 26 22 16 14 16 18 18 13 7 5 8 11 10 9 10 8 6 6 5 6 8 10 14 17 20 20 16 12 10 9 10 10 8 9 11 13 18 26 30 30 33 40 44 44 37 25 17 13 12 10 10 11 12 8 -2 -9 -8 -2 12 23 19 10 5 4 7 7 5 5 6 6 5 4 2 1 1
20 23 31 35 32 30 27 24 22 22 20 16 13 13 13 14 13 9 6 5 7 11 10 9 9 7 5 3 1 2 5 7 12 16 19 22 20 13 9 9 9 10 9 9 9 9 8 13 20 24 29 35 42 46 45 39 28 17 12 11 10 10 11 11 6 -0 -4 -8 -7 7 21 26 19 11 12 12 7 5 6 6 9 11 11 6 1
18 25 34 33 27 23 21 20 19 16 14 13 12 11 10 9 8 7 7 8 9 10 11 10 9 7 6 4 2 2 5 8 12 15 18 22 22 17 10 7 8 7 8 11 12 12 9 8 9 14 20 27 35 42 45 45 42 31 21 14 11 10 10 11 10 4 3 1 -4 -6 1 16 25 21 15 14 14 11 6 6 8 7 8 9 5
19 27 34 30 22 17 16 15 15 15 14 12 10 9 7 5 5 6 7 11 12 12 13 14 12 10 7 6 7 7 10 15 18 15 16 20 24 22 14 9 9 8 8 12 14 15 14 13 11 10 13 19 25 32 39 44 47 43 33 23 16 13 11 12 12 8 3 1 2 1 -4 -3 8 17 14 10 13 16 11 7 7 7 7 9 12
21 27 30 25 17 13 11 10 11 12 11 10 9 8 6 4 4 6 8 11 14 14 15 15 14 12 10 8 9 9 12 17 19 15 15 17 22 24 20 12 11 11 10 11 13 16 17 15 14 11 10 14 20 23 28 35 45 48 43 35 27 20 15 13 13 13 10 4 -1 -1 -1 -5 -5 4 12 12 11 14 16 12 7 7 8 9 19
22 26 24 21 15 10 9 9 8 8 6 5 5 4 4 4 4 7 8 9 11 12 12 12 12 12 12 10 7 7 12 16 15 14 15 17 19 23 23 16 13 13 11 10 12 14 16 14 13 12 10 10 15 20 22 25 34 44 46 42 37 31 24 19 15 14 13 12 8 1 0 0 -4 -4 3 13 15 12 14 17 15 17 20 20 27
25 25 20 18 14 9 8 8 7 6 4 4 4 3 3 5 6 7 7 7 8 9 9 9 9 10 9 9 7 6 9 13 14 13 14 15 17 20 22 18 14 13 10 10 12 12 13 13 12 12 11 9 9 13 19 23 26 33 40 42 41 38 34 28 24 20 15 13 14 11 6 5 6 1 -5 -0 12 18 19 19 16 17 22 25 28
27 26 19 17 13 8 6 7 6 5 4 5 6 5 4 5 7 6 5 6 7 8 8 8 10 12 9 8 8 7 7 8 11 14 13 13 15 17 21 20 15 12 10 9 11 11 11 12 12 12 12 11 11 9 12 19 23 25 29 33 37 39 38 35 31 28 23 18 15 14 10 6 9 13 7 -4 -4 3 9 14 13 8 9 12 13
30 28 17 13 11 8 8 8 8 9 7 6 7 7 5 4 5 6 6 6 6 7 9 9 9 11 10 8 8 8 8 6 7 13 15 13 14 15 18 19 16 12 10 8 8 10 11 12 13 13 12 12 14 13 10 12 19 24 25 25 29 33 34 35 34 31 28 25 21 18 16 9 4 10 17 13 3 -7 -12 -10 -5 -6 -7 -5 -3
31 30 14 8 11 10 9 9 8 9 9 9 10 10 9 7 5 6 7 7 8 8 9 10 10 9 9 8 7 7 8 7 6 11 15 14 14 14 15 17 16 13 11 11 10 9 10 11 12 12 12 11 12 15 14 12 13 18 23 25 26 28 29 30 32 32 31 30 27 24 23 20 11 4 9 17 19 14 3 -6 -11 -14 -17 -17 -15
31 29 12 7 10 9 10 10 8 10 10 10 12 13 13 13 10 7 7 8 11 11 11 11 10 9 7 6 7 10 9 7 7 9 14 16 15 14 14 15 15 13 12 11 11 10 9 10 11 12 13 13 11 13 16 16 15 14 16 21 24 26 27 28 29 30 31 32 32 29 27 26 21 12 6 10 16 19 21 18 13 8 3 -1 -4
31 31 14 6 9 9 10 11 9 10 11 10 11 12 12 13 14 12 9 9 10 12 13 14 13 10 9 9 11 13 11 10 11 10 11 15 16 14 13 14 14 14 12 11 10 10 10 10 10 10 12 14 11 10 12 14 15 14 13 15 19 22 24 25 26 28 28 28 30 30 28 27 26 20 11 8 10 11 14 17 18 19 19 16 13
31 36 22 7 9 11 9 9 10 9 11 10 8 9 10 12 15 17 16 14 12 12 11 13 15 15 13 11 10 11 10 11 14 14 10 12 16 15 13 14 15 14 13 13 12 11 11 11 11 10 10 12 11 9 10 11 12 12 11 11 13 17 20 21 22 24 26 26 25 26 27 26 27 25 18 11 10 9 9 10 11 13 15 16 16
26 35 32 13 9 13 10 9 13 12 12 10 5 8 15 18 19 20 23 22 20 21 19 13 10 10 10 8 5 6 9 10 13 15 13 12 15 16 14 14 16 16 14 12 12 11 11 11 12 11 9 10 10 9 7 8 8 9 9 9 9 11 14 18 20 21 23 24 24 23 24 25 25 25 24 20 16 14 11 8 8 8 9 12 14
22 29 34 19 7 11 11 9 13 14 11 8 6 10 16 18 17 16 17 19 20 26 32 25 12 3 2 4 3 4 7 9 10 13 14 14 15 17 16 13 13 14 13 13 12 12 12 12 12 12 11 10 9 9 8 7 6 6 8 8 7 7 7 10 14 17 18 21 24 25 24 25 24 24 24 23 21 21 19 15 11 8 6 6 9
24 25 33 26 8 6 10 9 12 13 10 7 7 12 16 16 15 14 15 19 22 25 33 38 29 12 2 2 4 5 7 8 9 11 13 15 16 17 15 12 11 11 11 12 13 13 15 16 14 14 14 12 10 8 8 8 7 6 5 5 6 7 6 5 6 9 11 12 15 19 22 24 27 27 26 25 23 22 22 21 19 16 12 7 4
26 23 31 30 13 5 10 9 10 12 9 7 9 13 16 15 13 16 18 20 24 24 26 35 38 29 17 8 4 5 8 9 9 11 13 15 17 17 14 11 10 9 9 10 12 15 16 17 18 17 17 15 13 11 10 9 8 7 5 4 4 4 5 5 4 5 6 6 6 7 10 13 18 22 25 28 29 29 29 29 27 25 23 21 15
25 23 29 31 16 6 10 10 10 11 7 7 11 15 16 15 14 18 20 21 26 28 26 28 33 35 31 23 13 9 10 10 10 13 15 15 17 16 13 11 10 8 9 10 12 15 17 17 19 20 19 18 16 14 11 8 7 6 6 6 5 4 4 4 5 4 4 5 5 4 4 3 4 6 10 15 19 23 27 29 30 31 30 28 28
24 23 28 32 18 6 8 9 9 11 8 8 13 15 14 16 17 18 21 27 35 39 36 30 28 30 30 28 26 20 14 12 14 16 15 15 17 17 14 12 10 8 10 12 15 18 20 20 21 22 23 23 20 17 14 11 9 8 8 8 7 6 5 4 5 6 7 7 7 6 6 6 5 4 4 4 5 6 9 14 19 24 28 31 32
24 23 26 31 21 8 8 9 8 9 9 9 14 16 14 18 20 18 22 32 40 42 39 32 28 27 24 24 28 25 17 15 17 18 17 16 17 16 13 10 9 11 15 16 17 18 19 19 20 21 23 23 22 20 18 16 15 14 13 13 11 9 8 8 7 8 9 11 11 10 9 9 9 9 8 7 5 5 4 5 6 8 13 18 22
21 23 24 27 19 9 8 9 8 10 11 11 15 16 16 20 20 15 22 34 38 36 33 30 28 26 22 23 26 22 17 18 19 19 19 18 16 13 11 12 15 18 19 18 17 16 16 16 17 17 18 19 20 19 18 18 17 15 14 15 15 14 13 14 13 13 13 12 11 11 10 10 9 9 9 10 9 9 9 8 6 5 4 4 6
20 23 24 23 17 9 7 8 10 11 11 13 16 15 16 21 19 15 20 30 34 35 32 30 30 28 25 23 21 18 18 19 20 19 17 15 13 13 16 19 21 18 14 12 12 12 12 13 14 14 14 14 14 14 15 15 15 16 15 15 16 16 14 14 14 14 14 14 14 15 14 13 13 13 13 12 11 10 10 9 8 6 6 6 5
24 24 24 22 16 9 7 9 11 12 12 15 17 15 17 21 20 17 18 21 26 33 34 32 31 26 21 19 18 19 20 19 17 15 14 15 19 22 23 19 13 9 8 11 15 19 22 25 26 27 26 25 24 24 24 25 26 28 28 28 29 29 28 27 24 21 21 22 22 23 22 22 23 22 19 17 17 16 14 13 13 12 11 10 9
26 23 23 20 12 7 6 6 9 13 16 18 17 15 18 22 22 21 20 18 19 22 24 24 22 19 18 19 20 19 17 15 15 15 18 22 21 17 11 7 8 15 23 28 30 30 30 30 28 27 26 25 24 24 24 25 25 24 24 27 31 33 36 37 34 31 30 27 27 31 33 34 32 28 25 24 22 22 20 21 24 24 20 18 18
27 25 26 19 9 8 8 7 12 16 17 18 17 15 18 22 21 19 19 18 18 19 19 19 19 19 19 18 16 15 15 16 18 19 17 15 10 10 15 22 29 31 29 25 22 19 18 17 15 15 15 15 15 14 14 14 12 11 11 12 16 22 27 30 33 34 30 26 31 37 35 30 25 21 22 22 22 25 28 29 31 33 34 33 31
27 26 24 15 7 6 6 10 18 18 16 19 18 15 17 18 15 14 14 13 14 16 17 17 17 17 16 16 16 18 18 16 16 14 12 13 19 28 34 33 28 20 13 10 10 11 12 11 9 9 9 9 9 8 8 7 7 8 7 6 7 13 19 24 30 33 30 29 31 27 17 11 11 14 18 21 23 26 26 24 25 27 29 31 31
30 27 19 11 7 5 6 16 22 17 16 20 18 13 14 13 9 8 9 9 11 14 14 16 17 17 18 19 18 16 14 14 15 17 21 28 32 29 21 14 11 10 10 11 11 10 8 6 6 7 6 7 7 7 7 8 7 8 10 9 8 9 15 22 27 29 31 30 22 10 4 6 11 17 20 20 22 23 24 28 32 30 25 24 28
30 22 13 7 5 5 10 21 23 15 15 20 18 13 11 10 7 6 6 10 16 20 19 19 20 18 16 13 12 13 16 19 22 26 29 27 19 11 7 9 10 11 12 12 11 10 8 6 7 7 7 7 6 6 7 8 9 11 14 15 16 15 13 15 20 24 22 15 6 3 6 11 15 18 18 16 17 18 20 26 32 32 30 29 31
25 15 10 5 3 11 21 24 19 13 15 21 20 12 8 9 8 5 9 17 22 20 18 15 12 11 11 13 17 22 23 22 22 23 19 11 5 4 7 7 6 6 8 10 13 14 12 10 9 8 8 7 6 5 5 5 10 18 25 30 33 27 15 9 13 18 17 12 10 14 15 14 12 12 12 13 13 12 13 16 20 26 34 37 37
18 10 5 2 8 22 28 21 13 11 16 22 21 12 9 10 7 7 16 23 19 13 10 9 9 13 18 23 25 22 18 18 18 14 7 2 2 3 4 5 7 9 10 12 15 17 16 15 11 9 9 9 9 8 6 8 15 24 36 48 48 35 21 15 14 13 15 17 19 16 10 6 4 4 9 16 16 10 6 10 18 30 38 39 38
12 5 4 9 20 28 24 15 11 12 18 23 19 12 10 8 6 13 22 19 11 7 6 8 16 23 26 25 19 15 15 15 13 6 1 0 2 4 5 7 9 10 9 10 11 12 17 20 15 10 10 12 13 9 5 12 21 16 16 33 44 40 37 36 29 22 22 22 17 9 4 3 6 9 15 20 19 12 7 12 27 39 40 37 37
5 3 9 21 26 22 16 12 13 16 21 22 18 13 10 8 10 18 20 13 6 5 8 16 25 29 25 17 11 10 11 9 6 4 1 1 4 6 6 5 7 7 6 7 7 7 14 20 19 17 17 15 11 8 7 16 21 7 -4 5 17 20 25 30 27 22 19 15 10 8 9 13 18 22 25 27 25 23 23 27 35 38 36 33 33
3 8 18 24 20 15 12 12 17 23 23 19 16 12 9 10 15 17 14 7 3 5 15 25 30 27 19 7 3 6 6 4 5 4 2 3 6 7 6 5 6 7 7 11 16 16 16 21 21 21 21 15 9 11 15 19 19 10 3 7 12 11 12 14 17 18 16 13 14 14 16 22 24 21 21 24 26 28 32 30 24 22 26 28 23
9 18 22 20 14 12 11 15 24 28 21 15 15 13 11 15 17 13 8 3 3 14 28 29 24 20 11 -1 -1 7 8 6 8 7 4 6 7 7 7 5 5 10 13 16 17 15 19 27 28 24 22 17 13 16 20 21 21 16 8 9 16 18 15 11 12 16 16 16 18 17 14 16 15 11 12 15 16 19 27 29 21 12 15 19 16
17 23 20 15 11 11 14 22 29 25 18 17 18 15 16 19 15 7 2 3 12 27 33 23 15 17 11 -2 -3 6 8 10 13 10 7 8 6 5 7 7 5 10 14 12 9 9 17 26 25 18 18 18 15 17 20 22 25 23 16 12 16 21 21 16 11 9 8 8 11 13 12 9 7 8 13 14 12 13 19 26 25 17 10 10 13
22 22 15 12 11 13 19 27 28 22 20 22 22 20 20 19 11 3 4 15 29 35 26 12 11 16 13 3 1 4 7 13 15 9 5 6 4 4 8 9 8 11 12 9 5 6 13 21 20 14 15 16 14 15 16 17 20 24 23 22 21 19 20 20 15 11 10 10 9 9 10 10 11 12 13 13 14 17 17 18 22 25 20 13 10
Height
5580 5574 5569 5564 5560 5556 5551 5546 5542 5538 5534 5531 5528 5525 5521 5518 5515 5512 5508 5504 5502 5500 5497 5495 5493 5492 5491 5491 5492 5495 5499 5500 5501 5503 5506 5508 5509 5508 5509 5511 5513 5515 5515 5516 5518 5523 5527 5529 5532 5535 5539 5542 5544 5546 5547 5548 5548 5550 5553 5557 5560 5563 5567 5572 5576 5577 5577 5579 5583 5586 5588 5591 5593 5596 5599 5603 5607 5610 5612 5614 5617 5619 5622 5624 5624
5569 5563 5558 5553 5548 5543 5537 5533 5529 5525 5521 5517 5513 5509 5505 5501 5498 5494 5490 5486 5483 5481 5478 5477 5476 5474 5472 5471 5472 5476 5480 5481 5483 5485 5488 5492 5495 5494 5494 5495 5497 5500 5503 5503 5504 5508 5512 5517 5520 5523 5526 5529 5532 5535 5537 5539 5540 5540 5541 5543 5548 5553 5557 5561 5564 5565 5566 5572 5576 5577 5578 5581 5584 5587 5591 5596 5599 5602 5604 5606 5608 5611 5614 5615 5616
5559 5553 5548 5543 5537 5532 5526 5521 5516 5511 5507 5502 5498 5494 5489 5485 5481 5476 5472 5468 5464 5461 5459 5458 5456 5454 5451 5451 5453 5456 5459 5461 5463 5467 5470 5474 5478 5479 5479 5481 5482 5483 5486 5490 5492 5494 5497 5503 5508 5511 5513 5516 5519 5522 5526 5528 5530 5532 5532 5532 5535 5540 5546 5549 5551 5555 5559 5562 5563 5564 5569 5573 5574 5579 5585 5590 5592 5594 5595 5598 5600 5603 5605 5606 5608
5549 5543 5537 5532 5525 5520 5514 5508 5503 5496 5491 5486 5483 5479 5473 5468 5463 5457 5453 5448 5444 5441 5439 5437 5434 5432 5429 5429 5432 5436 5438 5439 5442 5446 5451 5453 5457 5461 5462 5463 5466 5468 5470 5473 5477 5480 5484 5489 5494 5497 5501 5503 5506 5509 5513 5517 5520 5522 5523 5523 5523 5526 5532 5538 5542 5546 5547 5549 5552 5555 5560 5562 5565 5575 5581 5582 5582 5584 5587 5589 5591 5594 5596 5598 5601
5538 5532 5526 5519 5512 5506 5500 5493 5485 5479 5473 5468 5464 5460 5454 5449 5443 5438 5433 5429 5425 5422 5420 5418 5414 5411 5409 5409 5412 5415 5417 5419 5421 5424 5428 5430 5434 5441 5444 5445 5447 5451 5453 5455 5459 5464 5470 5475 5479 5482 5487 5490 5493 5497 5502 5505 5509 5512 5514 5514 5513 5513 5519 5526 5531 5534 5535 5539 5543 5545 5549 5553 5561 5571 5571 5570 5573 5575 5578 5580 5582 5585 5588 5590 5593
5527 5521 5514 5507 5498 5491 5484 5477 5469 5463 5457 5451 5446 5441 5435 5429 5424 5420 5415 5411 5407 5405 5404 5401 5397 5394 5391 5391 5395 5397 5398 5401 5403 5404 5406 5408 5412 5418 5424 5428 5428 5431 5436 5438 5441 5446 5453 5460 5464 5468 5472 5477 5481 5485 5490 5494 5497 5502 5504 5505 5505 5504 5507 5511 5516 5522 5525 5529 5532 5535 5541 5546 5553 5557 5556 5560 5564 5565 5568 5571 5573 5577 5579 5582 5585
5518 5511 5502 5494 5485 5478 5470 5463 5456 5449 5443 5437 5431 5425 5418 5412 5407 5403 5398 5394 5391 5390 5388 5386 5383 5380 5378 5379 5381 5381 5382 5385 5386 5387 5389 5391 5393 5397 5403 5409 5412 5412 5416 5421 5424 5429 5434 5441 5448 5452 5457 5463 5467 5471 5477 5482 5485 5488 5492 5495 5496 5496 5497 5498 5503 5511 5514 5517 5522 5528 5532 5535 5540 5543 5547 5552 5554 5555 5560 5562 5565 5568 5570 5573 5577
5507 5498 5490 5482 5474 5466 5458 5450 5443 5435 5427 5421 5415 5409 5402 5396 5392 5388 5383 5380 5377 5375 5374 5373 5370 5368 5368 5370 5369 5368 5369 5372 5374 5374 5376 5377 5378 5380 5384 5390 5395 5396 5398 5403 5408 5412 5416 5422 5429 5436 5443 5448 5452 5457 5464 5469 5472 5475 5478 5482 5485 5487 5487 5487 5492 5498 5501 5506 5513 5519 5522 5524 5528 5534 5538 5542 5543 5547 5552 5554 5558 5560 5562 5565 5569
5495 5487 5479 5470 5462 5453 5444 5436 5428 5420 5411 5404 5398 5393 5387 5382 5378 5375 5371 5368 5366 5365 5363 5362 5360 5359 5361 5361 5360 5360 5361 5362 5363 5364 5365 5365 5366 5368 5369 5372 5378 5382 5383 5386 5391 5396 5401 5406 5412 5419 5427 5433 5437 5442 5448 5455 5458 5462 5465 5469 5473 5475 5477 5478 5481 5486 5490 5496 5503 5508 5511 5514 5517 5522 5527 5530 5534 5539 5543 5547 5551 5552 5554 5559 5563
5486 5477 5468 5459 5450 5440 5431 5424 5416 5407 5398 5391 5384 5379 5374 5369 5366 5364 5362 5359 5357 5356 5355 5354 5354 5353 5354 5354 5353 5355 5355 5355 5355 5356 5356 5356 5356 5358 5359 5359 5363 5367 5370 5372 5375 5380 5385 5391 5396 5403 5410 5417 5421 5426 5433 5440 5445 5449 5453 5456 5459 5463 5466 5468 5470 5474 5479 5485 5492 5496 5499 5503 5506 5510 5516 5521 5526 5530 5534 5539 5543 5544 5548 5553 5556
5473 5465 5456 5448 5439 5430 5421 5413 5406 5397 5389 5381 5375 5369 5363 5359 5356 5355 5354 5352 5350 5349 5349 5349 5349 5348 5348 5348 5348 5349 5349 5349 5349 5349 5349 5349 5349 5349 5349 5350 5351 5355 5358 5360 5362 5365 5370 5375 5381 5387 5395 5401 5406 5411 5418 5425 5430 5435 5439 5443 5447 5451 5455 5457 5459 5464 5467 5472 5479 5484 5488 5493 5496 5500 5507 5513 5515 5519 5524 5530 5534 5537 5541 5544 5546
5458 5450 5442 5435 5427 5420 5411 5403 5395 5386 5379 5373 5368 5361 5356 5352 5349 5347 5347 5345 5344 5344 5344 5344 5344 5343 5343 5343 5343 5343 5343 5343 5343 5343 5343 5342 5343 5342 5342 5342 5343 5345 5348 5350 5352 5353 5356 5360 5366 5372 5378 5385 5392 5398 5404 5410 5415 5421 5425 5430 5435 5440 5445 5447 5449 5453 5457 5461 5467 5473 5478 5483 5486 5491 5498 5502 5504 5509 5514 5518 5523 5527 5530 5534 5538
5447 5440 5432 5425 5416 5406 5397 5388 5381 5375 5370 5365 5360 5354 5350 5346 5343 5341 5341 5340 5340 5340 5339 5339 5338 5338 5337 5337 5337 5337 5337 5337 5337 5337 5337 5336 5336 5336 5336 5336 5336 5338 5339 5341 5343 5344 5345 5348 5352 5357 5363 5369 5376 5383 5389 5395 5401 5407 5412 5417 5422 5427 5433 5436 5439 5443 5447 5451 5456 5461 5467 5472 5476 5482 5487 5490 5493 5498 5502 5507 5513 5517 5520 5524 5527
5440 5432 5424 5413 5402 5391 5381 5374 5369 5365 5362 5358 5353 5349 5345 5342 5339 5337 5337 5336 5335 5335 5334 5333 5333 5332 5332 5332 5332 5332 5332 5331 5331 5331 5330 5330 5330 5330 5330 5330 5330 5331 5332 5334 5335 5336 5337 5340 5342 5346 5350 5355 5360 5367 5374 5380 5386 5392 5398 5404 5410 5416 5421 5425 5429 5433 5437 5440 5445 5450 5455 5460 5466 5472 5476 5479 5483 5487 5491 5498 5504 5507 5510 5513 5516
5429 5420 5410 5399 5388 5378 5370 5365 5361 5357 5355 5352 5348 5344 5341 5338 5336 5335 5334 5333 5332 5331 5330 5329 5328 5327 5327 5327 5326 5326 5326 5325 5325 5324 5324 5324 5324 5324 5323 5323 5324 5325 5325 5327 5328 5328 5330 5332 5333 5336 5339 5342 5346 5352 5359 5366 5372 5378 5385 5391 5398 5404 5409 5413 5418 5423 5427 5430 5434 5439 5444 5449 5455 5461 5464 5469 5473 5478 5482 5487 5492 5495 5499 5503 5507
5414 5406 5397 5387 5378 5369 5363 5358 5355 5351 5349 5346 5343 5340 5337 5335 5333 5332 5331 5330 5328 5327 5325 5324 5323 5322 5322 5321 5320 5320 5319 5319 5319 5318 5317 5317 5317 5317 5317 5317 5317 5318 5318 5319 5320 5321 5322 5323 5325 5327 5329 5332 5335 5340 5345 5352 5359 5365 5372 5378 5385 5392 5396 5401 5406 5411 5416 5421 5425 5429 5434 5439 5445 5449 5454 5458 5463 5467 5471 5475 5480 5485 5489 5494 5498
5403 5395 5386 5378 5370 5363 5358 5354 5350 5346 5344 5342 5339 5336 5334 5331 5330 5328 5327 5326 5324 5323 5321 5319 5318 5317 5316 5315 5315 5314 5313 5312 5312 5311 5311 5311 5311 5311 5311 5310 5310 5311 5312 5312 5313 5314 5315 5316 5317 5319 5320 5322 5325 5329 5333 5338 5344 5351 5359 5366 5373 5379 5383 5389 5394 5399 5405 5410 5414 5419 5423 5429 5434 5438 5442 5448 5453 5457 5460 5463 5470 5476 5480 5483 5486
5393 5386 5379 5371 5364 5359 5354 5350 5346 5342 5339 5337 5334 5332 5330 5327 5326 5324 5322 5321 5319 5318 5316 5315 5313 5312 5311 5310 5309 5308 5307 5306 5305 5305 5304 5304 5304 5304 5304 5304 5304 5304 5305 5306 5307 5307 5308 5309 5310 5311 5312 5314 5316 5319 5323 5327 5331 5338 5346 5354 5360 5366 5370 5376 5382 5388 5393 5399 5403 5408 5413 5418 5423 5427 5432 5437 5442 5446 5449 5453 5459 5466 5469 5471 5476
5386 5379 5372 5366 5359 5354 5349 5346 5342 5339 5336 5333 5330 5328 5325 5323 5321 5319 5317 5315 5314 5312 5311 5309 5308 5307 5305 5304 5303 5302 5301 5301 5299 5298 5298 5298 5298 5298 5298 5298 5298 5298 5299 5299 5300 5301 5302 5303 5304 5304 5306 5307 5309 5311 5314 5317 5320 5326 5334 5340 5346 5352 5357 5364 5371 5377 5382 5387 5392 5397 5403 5408 5413 5417 5422 5426 5430 5435 5440 5443 5447 5454 5458 5461 5467
5378 5371 5366 5361 5355 5350 5345 5341 5338 5335 5332 5329 5326 5323 5321 5318 5316 5314 5312 5311 5309 5307 5305 5304 5303 5302 5300 5298 5297 5296 5295 5294 5293 5293 5292 5292 5293 5292 5292 5292 5292 5292 5293 5293 5294 5295 5296 5297 5298 5299 5300 5301 5302 5304 5306 5308 5311 5316 5322 5328 5334 5339 5345 5352 5359 5365 5370 5375 5380 5386 5391 5397 5403 5407 5411 5416 5421 5425 5429 5433 5437 5441 5446 5451 5455
5371 5365 5360 5356 5351 5346 5341 5337 5334 5330 5327 5324 5321 5318 5316 5313 5311 5309 5307 5305 5304 5302 5300 5298 5297 5296 5295 5293 5291 5291 5290 5289 5288 5287 5287 5287 5287 5286 5286 5286 5287 5287 5288 5288 5289 5289 5290 5291 5292 5293 5294 5295 5297 5298 5299 5301 5303 5307 5311 5317 5322 5326 5333 5340 5347 5352 5358 5363 5368 5374 5380 5386 5392 5397 5402 5406 5411 5415 5419 5423 5427 5431 5436 5441 5444
5364 5359 5355 5351 5347 5342 5338 5333 5329 5326 5323 5319 5316 5313 5310 5308 5306 5304 5302 5300 5298 5296 5294 5293 5292 5290 5289 5288 5286 5285 5284 5283 5283 5282 5282 5281 5281 5281 5281 5281 5282 5282 5283 5283 5284 5284 5285 5285 5286 5288 5289 5290 5291 5292 5294 5295 5298 5300 5303 5306 5311 5315 5322 5328 5334 5340 5346 5351 5356 5362 5369 5376 5380 5385 5391 5396 5401 5406 5409 5413 5418 5422 5427 5431 5434
5359 5353 5349 5346 5342 5338 5333 5329 5325 5321 5318 5314 5311 5308 5304 5302 5300 5298 5296 5294 5292 5290 5288 5286 5285 5284 5283 5282 5281 5280 5279 5278 5277 5277 5277 5276 5276 5275 5275 5276 5277 5277 5278 5278 5279 5280 5280 5281 5281 5282 5283 5284 5286 5287 5288 5290 5292 5294 5296 5299 5302 5306 5311 5317 5322 5327 5333 5338 5344 5351 5358 5365 5368 5373 5379 5386 5391 5395 5399 5403 5408 5413 5418 5422 5425
5354 5348 5344 5341 5337 5334 5329 5325 5321 5317 5313 5309 5306 5303 5299 5296 5293 5291 5289 5288 5286 5284 5282 5280 5279 5278 5278 5277 5276 5274 5273 5272 5272 5272 5272 5271 5271 5270 5270 5271 5272 5273 5273 5274 5274 5275 5276 5276 5277 5277 5278 5279 5280 5282 5283 5285 5287 5289 5291 5293 5296 5299 5303 5307 5311 5316 5321 5326 5333 5340 5348 5353 5357 5362 5369 5375 5380 5385 5389 5393 5398 5402 5407 5413 5416
5348 5343 5339 5335 5332 5329 5325 5321 5316 5312 5308 5304 5301 5298 5294 5290 5287 5284 5281 5280 5279 5277 5276 5275 5273 5272 5272 5271 5270 5269 5267 5266 5266 5266 5267 5266 5266 5266 5266 5266 5267 5268 5269 5269 5270 5270 5271 5272 5272 5273 5274 5274 5276 5277 5278 5280 5282 5284 5286 5288 5290 5293 5296 5299 5303 5307 5312 5317 5323 5330 5336 5341 5345 5352 5359 5364 5368 5374 5378 5382 5387 5392 5397 5402 5406
5341 5336 5332 5328 5325 5322 5319 5315 5311 5307 5303 5299 5296 5292 5288 5285 5281 5277 5274 5272 5270 5269 5268 5268 5267 5266 5265 5265 5264 5263 5262 5260 5260 5260 5261 5261 5261 5261 5261 5261 5262 5263 5264 5264 5265 5266 5266 5267 5268 5269 5269 5270 5271 5272 5274 5276 5277 5279 5281 5283 5285 5288 5290 5293 5296 5300 5304 5308 5314 5320 5325 5329 5335 5342 5349 5353 5357 5362 5366 5371 5376 5381 5385 5390 5393
5335 5330 5326 5322 5319 5315 5312 5309 5305 5302 5298 5294 5290 5286 5282 5278 5274 5271 5267 5264 5262 5261 5260 5260 5259 5259 5258 5258 5257 5257 5256 5255 5254 5255 5255 5255 5256 5256 5256 5256 5256 5257 5258 5259 5260 5261 5261 5262 5263 5264 5265 5266 5267 5268 5269 5271 5273 5275 5277 5278 5281 5283 5285 5287 5289 5293 5296 5300 5305 5310 5314 5319 5325 5332 5338 5342 5346 5350 5355 5359 5364 5369 5372 5376 5380
5331 5325 5320 5317 5314 5310 5306 5302 5298 5295 5292 5289 5284 5280 5275 5270 5266 5264 5260 5257 5255 5253 5252 5252 5252 5251 5251 5250 5250 5250 5250 5249 5249 5249 5249 5249 5250 5250 5251 5251 5251 5252 5253 5254 5254 5255 5256 5257 5258 5259 5260 5262 5263 5264 5265 5267 5269 5270 5272 5274 5276 5278 5280 5282 5284 5286 5289 5293 5297 5301 5305 5310 5316 5321 5326 5330 5334 5339 5343 5348 5353 5357 5360 5364 5369
5323 5319 5314 5311 5308 5305 5301 5297 5293 5289 5286 5283 5279 5274 5269 5264 5259 5255 5253 5250 5247 5246 5245 5244 5243 5243 5244 5244 5243 5244 5244 5243 5243 5243 5243 5243 5244 5245 5246 5246 5246 5247 5247 5248 5249 5250 5250 5251 5253 5254 5255 5257 5258 5260 5261 5263 5264 5266 5267 5269 5271 5273 5275 5277 5279 5281 5283 5286 5290 5294 5298 5302 5307 5311 5315 5319 5324 5328 5332 5338 5342 5346 5349 5353 5358
5316 5311 5307 5304 5301 5298 5295 5291 5287 5283 5280 5276 5272 5267 5262 5257 5252 5248 5245 5242 5239 5237 5236 5235 5234 5234 5236 5237 5237 5237 5237 5237 5238 5238 5238 5238 5238 5240 5241 5241 5242 5242 5242 5242 5243 5244 5245 5246 5247 5248 5250 5252 5254 5256 5257 5258 5260 5261 5262 5264 5266 5268 5270 5272 5274 5276 5279 5281 5284 5287 5290 5294 5297 5301 5305 5309 5313 5317 5321 5327 5331 5333 5337 5341 5346
5311 5304 5300 5297 5294 5291 5287 5284 5280 5277 5273 5269 5265 5260 5255 5250 5245 5241 5237 5234 5231 5228 5227 5226 5226 5226 5227 5229 5231 5232 5232 5232 5232 5233 5233 5232 5233 5234 5235 5236 5236 5237 5237 5238 5238 5239 5240 5240 5241 5243 5245 5247 5249 5251 5252 5254 5255 5256 5258 5259 5261 5263 5265 5267 5269 5272 5274 5276 5278 5280 5283 5286 5289 5292 5296 5299 5303 5306 5311 5315 5319 5322 5325 5330 5334
5304 5299 5293 5289 5287 5284 5280 5277 5273 5270 5267 5263 5258 5253 5248 5243 5239 5234 5230 5226 5222 5219 5218 5217 5216 5217 5219 5222 5224 5226 5226 5226 5227 5227 5228 5228 5228 5228 5229 5230 5231 5232 5233 5233 5233 5234 5234 5235 5236 5237 5239 5241 5243 5246 5248 5249 5250 5251 5252 5254 5256 5258 5260 5262 5265 5267 5269 5271 5272 5274 5277 5279 5282 5285 5287 5290 5293 5297 5301 5305 5308 5311 5315 5319 5324
5296 5292 5287 5283 5281 5278 5274 5270 5267 5264 5261 5257 5252 5247 5242 5237 5232 5228 5223 5218 5214 5211 5209 5208 5208 5210 5212 5214 5216 5219 5221 5221 5222 5222 5223 5223 5223 5224 5225 5226 5227 5228 5228 5228 5229 5229 5229 5230 5231 5232 5234 5235 5238 5240 5242 5243 5245 5246 5247 5249 5250 5252 5255 5257 5259 5261 5263 5265 5267 5269 5271 5273 5275 5277 5279 5282 5286 5288 5291 5294 5298 5301 5305 5310 5314
5290 5285 5281 5278 5275 5272 5269 5266 5262 5258 5255 5250 5245 5241 5236 5232 5227 5222 5217 5211 5207 5203 5201 5201 5201 5203 5205 5207 5210 5213 5215 5216 5217 5218 5218 5219 5219 5220 5221 5222 5223 5223 5223 5224 5224 5225 5225 5226 5227 5227 5229 5230 5232 5234 5236 5237 5239 5240 5242 5243 5245 5246 5249 5251 5253 5255 5257 5259 5261 5263 5265 5267 5269 5270 5273 5275 5277 5280 5282 5284 5288 5291 5296 5301 5304
5283 5279 5275 5272 5270 5267 5264 5261 5258 5254 5249 5245 5240 5235 5231 5227 5222 5217 5212 5206 5201 5197 5195 5195 5196 5198 5200 5202 5205 5208 5210 5212 5213 5214 5214 5215 5216 5216 5217 5218 5218 5219 5219 5220 5220 5221 5221 5221 5222 5223 5224 5226 5227 5229 5230 5232 5234 5235 5236 5238 5239 5240 5242 5244 5247 5248 5250 5251 5253 5255 5257 5260 5262 5264 5265 5267 5269 5271 5273 5275 5279 5283 5288 5292 5295
5276 5273 5269 5266 5264 5261 5259 5256 5253 5249 5245 5240 5235 5231 5227 5223 5218 5213 5208 5202 5198 5194 5192 5192 5193 5194 5197 5199 5201 5204 5206 5208 5209 5210 5211 5212 5212 5213 5214 5215 5215 5216 5216 5216 5217 5217 5217 5218 5219 5219 5220 5221 5222 5224 5225 5227 5228 5229 5231 5231 5232 5233 5235 5237 5239 5241 5242 5243 5245 5247 5249 5251 5253 5256 5257 5258 5259 5261 5263 5266 5270 5275 5279 5283 5287
5272 5268 5264 5261 5259 5256 5254 5251 5248 5245 5241 5236 5232 5228 5224 5220 5215 5210 5205 5200 5196 5193 5191 5190 5191 5192 5195 5197 5200 5202 5203 5205 5206 5207 5208 5209 5210 5211 5211 5211 5212 5213 5213 5213 5214 5214 5214 5215 5215 5216 5216 5217 5218 5219 5221 5221 5222 5223 5225 5225 5225 5227 5228 5229 5231 5232 5233 5235 5237 5238 5241 5243 5245 5247 5248 5248 5249 5250 5253 5257 5261 5266 5269 5273 5278
5268 5263 5260 5257 5255 5252 5249 5246 5244 5241 5237 5232 5229 5225 5222 5217 5213 5209 5205 5200 5196 5193 5191 5190 5191 5193 5195 5197 5199 5200 5201 5202 5203 5205 5206 5206 5207 5208 5209 5209 5210 5210 5211 5211 5211 5211 5211 5212 5212 5213 5213 5214 5214 5215 5216 5217 5218 5218 5219 5219 5219 5220 5221 5222 5223 5224 5225 5226 5228 5230 5231 5234 5236 5238 5238 5239 5240 5241 5244 5248 5252 5255 5258 5262 5267
5264 5260 5256 5253 5251 5248 5246 5243 5239 5237 5233 5229 5226 5223 5220 5216 5212 5208 5204 5201 5198 5195 5193 5192 5193 5194 5195 5197 5198 5199 5200 5201 5202 5203 5204 5205 5206 5206 5207 5208 5208 5208 5209 5209 5209 5209 5209 5210 5210 5211 5211 5212 5212 5213 5213 5214 5214 5214 5214 5214 5214 5214 5214 5215 5215 5215 5216 5218 5220 5221 5223 5225 5227 5229 5229 5231 5232 5233 5235 5239 5242 5243 5246 5251 5255
5260 5256 5253 5250 5248 5245 5243 5240 5236 5233 5230 5227 5224 5221 5218 5214 5211 5207 5204 5202 5199 5198 5196 5195 5195 5196 5196 5197 5197 5198 5199 5200 5201 5202 5203 5204 5205 5205 5206 5207 5207 5207 5207 5207 5208 5208 5209 5209 5209 5209 5210 5210 5211 5211 5211 5211 5211 5211 5210 5210 5209 5209 5209 5209 5208 5208 5209 5211 5213 5215 5217 5219 5221 5222 5223 5225 5226 5226 5228 5232 5233 5234 5237 5240 5242
5255 5252 5249 5247 5245 5243 5240 5237 5233 5230 5227 5224 5222 5220 5217 5214 5211 5208 5205 5203 5201 5200 5198 5197 5197 5197 5197 5197 5198 5199 5199 5200 5201 5202 5202 5203 5204 5205 5206 5206 5207 5207 5207 5208 5208 5208 5208 5208 5209 5209 5209 5209 5209 5210 5209 5209 5209 5208 5207 5206 5205 5205 5205 5204 5204 5204 5205 5207 5208 5210 5213 5215 5216 5218 5220 5221 5222 5222 5222 5224 5226 5227 5228 5229 5230
5252 5249 5247 5245 5243 5240 5236 5233 5230 5227 5225 5222 5221 5219 5216 5213 5210 5208 5206 5205 5203 5202 5200 5199 5199 5198 5198 5199 5199 5199 5200 5200 5201 5202 5202 5203 5204 5205 5206 5207 5207 5208 5208 5208 5208 5208 5208 5208 5208 5208 5208 5208 5208 5208 5207 5207 5206 5205 5204 5203 5202 5202 5201 5201 5200 5201 5201 5203 5205 5207 5209 5211 5213 5214 5216 5217 5218 5218 5217 5218 5220 5220 5219 5219 5221
5248 5246 5244 5242 5240 5237 5233 5230 5227 5225 5223 5221 5219 5218 5215 5213 5211 5209 5208 5206 5205 5203 5202 5201 5200 5200 5200 5200 5200 5200 5201 5201 5202 5202 5203 5204 5205 5206 5207 5207 5208 5208 5208 5208 5208 5208 5208 5208 5208 5207 5207 5207 5206 5206 5205 5205 5203 5202 5201 5200 5199 5199 5199 5199 5198 5199 5199 5201 5203 5205 5207 5208 5209 5211 5212 5212 5213 5213 5213 5213 5213 5212 5210 5212 5214
5246 5244 5243 5241 5238 5234 5231 5227 5225 5223 5221 5220 5218 5217 5215 5213 5211 5210 5208 5207 5206 5204 5204 5203 5202 5202 5202 5201 5201 5201 5202 5202 5203 5204 5205 5206 5207 5207 5208 5208 5208 5208 5208 5208 5208 5208 5208 5207 5206 5206 5206 5205 5205 5204 5203 5202 5201 5200 5198 5196 5195 5195 5196 5196 5197 5197 5198 5199 5201 5202 5204 5205 5206 5207 5208 5209 5209 5209 5209 5209 5208 5206 5206 5207 5208
5245 5243 5242 5239 5236 5232 5229 5226 5224 5222 5220 5219 5218 5217 5215 5213 5212 5210 5209 5208 5207 5206 5205 5205 5204 5204 5203 5203 5203 5203 5203 5204 5205 5206 5207 5208 5208 5208 5208 5209 5209 5209 5209 5208 5208 5208 5207 5206 5206 5205 5204 5204 5203 5203 5202 5201 5200 5198 5196 5193 5191 5192 5193 5194 5195 5196 5197 5198 5199 5200 5202 5203 5204 5205 5205 5205 5206 5206 5206 5206 5205 5204 5203 5204 5206
5244 5243 5240 5237 5234 5230 5228 5225 5223 5221 5219 5218 5217 5216 5215 5214 5212 5211 5210 5209 5208 5208 5207 5206 5205 5205 5205 5205 5205 5205 5206 5207 5207 5208 5209 5209 5210 5210 5210 5210 5209 5209 5209 5208 5208 5207 5206 5206 5205 5204 5203 5203 5202 5201 5201 5200 5199 5197 5195 5193 5191 5191 5191 5192 5194 5195 5196 5197 5198 5199 5200 5201 5202 5202 5202 5202 5203 5203 5203 5203 5203 5202 5202 5203 5205
5244 5242 5239 5236 5233 5230 5228 5226 5223 5221 5219 5218 5218 5217 5215 5214 5213 5212 5211 5210 5210 5209 5208 5207 5207 5206 5206 5207 5207 5208 5209 5209 5210 5210 5211 5211 5211 5211 5211 5210 5210 5209 5209 5208 5207 5207 5206 5205 5204 5203 5202 5202 5201 5201 5200 5199 5198 5197 5196 5194 5193 5192 5192 5193 5194 5195 5196 5197 5197 5198 5199 5200 5201 5200 5200 5200 5201 5201 5201 5202 5202 5202 5202 5204 5207
5244 5241 5238 5235 5233 5230 5228 5226 5224 5222 5220 5219 5218 5217 5216 5215 5214 5213 5213 5212 5211 5210 5209 5208 5208 5208 5208 5209 5210 5210 5211 5211 5212 5212 5212 5212 5212 5212 5212 5212 5211 5210 5210 5209 5208 5207 5206 5204 5203 5203 5202 5202 5201 5200 5200 5199 5198 5197 5196 5196 5195 5194 5194 5194 5195 5195 5196 5197 5197 5198 5199 5200 5200 5199 5199 5200 5200 5200 5201 5201 5202 5203 5204 5207 5209
5244 5241 5238 5235 5233 5231 5229 5226 5224 5222 5221 5220 5219 5218 5217 5216 5215 5215 5214 5213 5212 5211 5210 5209 5210 5210 5210 5211 5212 5212 5213 5213 5213 5213 5213 5213 5213 5213 5213 5212 5212 5212 5211 5210 5209 5207 5206 5205 5203 5202 5202 5202 5201 5201 5200 5199 5198 5198 5197 5196 5196 5195 5195 5195 5196 5196 5197 5197 5198 5199 5199 5200 5200 5200 5200 5199 5199 5200 5201 5202 5203 5205 5207 5210 5213
5245 5242 5238 5236 5234 5232 5229 5227 5225 5223 5222 5221 5221 5220 5218 5217 5217 5216 5216 5215 5213 5212 5211 5211 5212 5212 5213 5213 5214 5214 5214 5214 5214 5214 5214 5215 5214 5214 5214 5213 5212 5212 5212 5210 5209 5207 5206 5205 5204 5203 5203 5202 5202 5201 5201 5200 5199 5198 5198 5197 5197 5196 5196 5196 5196 5197 5197 5198 5199 5199 5200 5200 5200 5201 5201 5200 5200 5201 5202 5203 5205 5207 5210 5213 5216
5246 5243 5240 5237 5235 5233 5231 5228 5226 5225 5224 5223 5222 5221 5220 5219 5219 5218 5217 5216 5214 5214 5213 5214 5214 5214 5215 5215 5215 5216 5216 5216 5216 5216 5216 5215 5215 5215 5214 5214 5213 5213 5212 5210 5209 5208 5208 5207 5206 5205 5205 5204 5203 5203 5202 5201 5200 5200 5199 5199 5198 5197 5197 5197 5197 5198 5198 5198 5199 5199 5200 5201 5201 5201 5202 5202 5203 5203 5203 5205 5207 5209 5211 5214 5217